Regional Weather Roundup
Issued by NWS Newport/Morehead, NC

Home | Current Version | Previous Version | Text Only | Print | Product List | Glossary On
Versions: 1 2 3 4 5 6 7 8 9 10 11 12 13 14 15 16 17 18 19 20 21 22 23 24 25 26 27 28 29 30 31 32 33 34 35 36 37 38 39 40 41 42 43 44 45 46 47 48 49 50
000
ASUS42 KMHX 210524
RWRMHX
WEATHER ROUNDUP FOR EASTERN NORTH CAROLINA
NATIONAL WEATHER SERVICE NEWPORT/MOREHEAD CITY NC
100 AM EDT TUE APR 21 2015

NOTE: "FAIR" INDICATES FEW OR NO CLOUDS BELOW 12,000 FEET
WITH NO SIGNIFICANT WEATHER AND/OR OBSTRUCTIONS TO VISIBILITY

NCZ015>017-031-032-045>047-102-103-210600-
NORTH COAST

CITY           SKY/WX    TMP DP  RH WIND       PRES   REMARKS
EDENTON        CLOUDY    68  63  83 S13       29.71S
ELIZABETH CITY CLOUDY    69  62  78 S13G21    29.69F
KITTY HAWK     CLOUDY    69  64  85 S6        29.71R
MANTEO         CLOUDY    68  65  91 S17       29.72F

$$

NCZ045>047-081-094-103-104-210600-
CENTRAL COAST

CITY           SKY/WX    TMP DP  RH WIND       PRES   REMARKS
FRISCO         CLOUDY    66  65  96 SW13      29.78S
SWANQUARTER      N/A     70 N/A N/A SW17G26   29.71S

$$

NCZ095-097-098-100-101-210600-
SOUTHERN COAST

CITY           SKY/WX    TMP DP  RH WIND       PRES   REMARKS
BEAUFORT       CLOUDY    68  65  90 S13       29.77F
CEDAR ISLAND     N/A     70 N/A N/A S14G21    29.79S
JACKSONVILLE   CLOUDY    70  62  76 S9        29.75F
PINEY ISLAND   CLOUDY   N/A N/A N/A SW17      29.76S
WILMINGTON     MOCLDY    71  59  65 S18G26    29.76F


$$

NCZ011>013-027>030-043-044-078>080-089-090>093-098-210600-
COASTAL PLAIN

CITY           SKY/WX    TMP DP  RH WIND       PRES   REMARKS
AHOSKIE        PTCLDY    68  61  79 S7        29.69R
CLINTON        CLEAR     66  65  94 S5        29.74S
ELIZABETHTOWN  CLEAR     67  64  88 SW8       29.75S
GOLDSBORO      MOCLDY    68  63  83 S10G21    29.69F
GREENVILLE     PTCLDY    70  63  78 SW15      29.73F
HAVELOCK       CLOUDY    69  63  81 SW10G20   29.77S
KENANSVILLE    PTCLDY    66  62  85 SW5       29.74F
KINSTON        PTCLDY    67  63  85 S12       29.73F
NEW BERN       CLOUDY    69  62  78 S9        29.76S
RICHLANDS      MOCLDY    66  61  82 S10       29.74F
ROCKY MOUNT    CLOUDY    69  63  81 SW12      29.69R
WASHINGTON     MOCLDY    68  62  82 SW8       29.72S
WHITEVILLE     PTCLDY    68  63  84 SW8G16    29.77S

$$

AMZ130-135-150-152-154-156-158-170-250-252-270-ANZ085-086-088-633-658-670-210600-
MARINE OBSERVATIONS

STATION/POSITION TIME  TEMP    WIND        PRES    WAVE   SWELL
                       AIR SEA DIR/SP/G            HT/PER HT/PER
                 (UTC) (F)     (DEG/KT/KT) (MB)    (FT/S) (FT/S)
CHESAPEAKE LIGHT 0500   64     200/ 25/ 26 1004.3
64 E VA BEACH    0450   64 58  210/ 25/ 35 1005.3    7/ 8   3/14
DUCK             0500   70 48  190/ 13/ 18 1004.5
2 E DUCK         0411      55                N/A     4/ 8   2/11
10 NE DUCK       NOT AVBL
OREGON INLET     0500   66 68  190/ 18/ 21 1007.1
HATTERAS CG      0500   70 69  200/ 11/ 16 1007.7
DIAMOND BUOY     0450   73 75  240/ 19/ 23 1008.3    6/ 6   2/13
CAPE LOOKOUT     0500   70     210/ 12/ 14 1007.9
BEAUFORT LAB     0500   68 66  210/ 11/ 14 1007.0
27 SE WRIGHTSVLE 0500   67 69  210/ 17/ 23   N/A
5 SE WRIGHTSVLE  0500   69 65  220/ 19/ 23 1008.0
225 S CAPE HAT   0450   72 72  210/ 17/ 19 1012.3    5/ 6   2/ 8
41 SE CHARLESTON 0450   72 73  240/ 19/ 23 1010.1    5/ 6   2/10

$$



USA.gov is the U.S. government's official web portal to all federal, state and local government web resources and services.